GFSSGP_700_spd_051.txt.gz
Wind_Speed
26 25 24 22 16 12 18 14 13 13 19 15 16 12 14 17 15 12 12 20 16 12 12 15 17 18 19 21 23 24 21 19 18 18 18 19 19 18 18 18 19 19 18 17 17 16 15 14 13
26 26 25 24 16 18 17 22 15 16 19 21 17 16 13 13 17 13 13 20 17 14 13 14 15 15 16 17 18 21 23 21 19 18 18 19 19 19 19 20 21 20 19 18 18 18 17 16 16
26 26 26 22 19 21 16 22 22 15 17 24 18 19 16 13 13 20 14 20 17 16 14 14 13 13 12 12 14 16 20 23 21 20 20 20 19 18 18 19 19 19 19 18 18 18 17 17 17
26 26 26 24 23 25 20 20 24 17 16 20 18 17 18 15 13 21 18 21 17 18 16 13 12 11 10 9 10 12 15 19 19 21 19 21 22 21 20 19 19 19 18 18 18 17 17 16 15
27 27 24 28 24 26 23 18 23 18 19 23 19 17 18 17 16 20 20 25 22 20 21 16 12 11 10 8 7 7 10 13 14 16 18 19 17 19 19 20 21 21 21 20 19 18 17 17 16
33 28 25 29 31 25 26 18 19 17 21 26 21 17 15 15 17 19 24 29 25 22 22 20 14 12 11 10 7 6 5 7 9 11 14 14 16 16 15 15 15 15 16 16 17 17 17 16 15
35 31 23 32 31 28 28 21 15 16 20 24 21 19 15 18 18 19 28 31 28 25 23 21 18 14 12 11 10 7 6 5 5 4 5 6 8 10 10 11 11 11 11 12 12 12 11 11 10
36 32 24 26 31 30 26 26 16 12 18 21 20 19 16 20 19 22 25 30 29 27 24 22 19 17 15 14 13 10 8 7 6 4 3 2 1 2 4 6 8 8 9 9 9 8 7 8 8
36 26 27 24 29 28 31 27 22 11 14 19 21 18 18 19 21 20 23 24 29 27 26 25 23 21 19 17 15 14 12 11 9 8 7 6 5 5 5 4 4 3 5 6 7 8 8 9 10
51 43 24 22 24 30 31 26 23 15 14 19 21 20 19 20 21 19 21 20 23 26 27 27 24 22 20 19 18 16 14 13 12 11 11 10 10 9 9 8 8 9 8 8 8 10 11 13 13
48 51 41 33 25 16 36 27 22 17 18 21 23 21 19 20 20 20 18 21 22 22 22 22 23 22 22 21 19 17 16 14 13 13 12 12 12 12 12 12 11 11 11 11 11 12 13 15 17
37 36 41 30 31 26 34 41 24 21 20 21 21 23 20 20 19 20 18 18 22 23 24 23 22 21 21 20 19 17 16 15 14 13 13 12 12 13 13 13 13 12 12 13 14 15 17 18 19
33 24 35 34 38 36 30 46 33 25 21 21 21 22 22 21 21 21 22 20 17 18 20 20 19 19 18 17 17 16 15 14 14 13 12 13 13 14 14 14 14 14 15 17 18 18 19 20 20
27 30 25 35 32 38 40 43 41 32 22 19 20 21 22 22 22 22 22 21 18 17 18 17 17 17 17 17 16 16 15 15 14 13 13 15 16 16 17 16 16 17 19 20 20 21 21 22 22
14 25 15 21 24 30 29 49 55 43 33 23 16 23 25 23 24 22 22 23 20 17 18 18 18 18 17 17 16 14 14 13 13 14 14 15 17 18 18 18 19 19 21 21 22 23 23 25 25
22 15 21 19 21 25 21 34 48 56 47 32 22 26 28 25 25 24 24 24 24 22 20 20 19 17 16 16 16 16 16 16 16 17 18 17 17 18 19 20 20 22 22 24 24 26 27 27 28
25 21 26 24 23 26 25 25 22 26 56 40 32 23 31 29 28 26 24 23 23 23 23 21 20 18 18 19 20 19 19 19 20 20 20 20 20 20 21 22 22 24 26 27 28 29 31 31 31
31 19 26 19 32 28 24 23 19 11 25 45 27 28 33 30 28 27 26 23 22 22 21 21 21 21 22 23 23 23 23 23 23 23 24 25 24 23 24 24 25 28 29 30 31 32 34 35 35
23 20 21 14 14 23 22 17 19 13 18 17 43 32 34 34 30 27 26 24 23 22 22 22 23 24 25 25 26 26 25 26 26 27 27 26 27 27 27 27 28 29 31 32 33 35 36 37 37
11 22 19 17 15 10 18 20 19 19 16 14 19 41 35 34 33 30 28 24 21 20 20 22 24 24 24 25 25 24 25 25 26 27 27 28 29 30 30 31 30 31 32 34 34 36 38 39 38
13 23 26 17 11 13 9 17 23 24 23 18 17 42 39 38 35 31 29 26 22 21 21 23 24 25 27 27 27 26 27 27 28 28 29 30 31 31 32 32 32 32 35 35 36 36 38 39 38
14 11 13 17 18 10 14 6 18 23 26 24 18 32 42 40 34 30 29 28 27 26 24 25 27 27 27 27 28 29 29 28 29 29 30 31 32 33 34 34 34 34 35 35 35 36 36 36 35
15 14 13 13 19 13 15 8 16 23 28 28 23 23 28 43 29 28 29 27 28 28 28 26 26 28 29 30 30 30 30 31 31 31 32 33 33 33 33 34 34 33 33 33 33 33 33 33 33
14 20 15 12 11 5 17 16 14 20 25 22 21 26 24 38 42 29 30 29 28 26 25 25 26 27 28 29 31 32 33 34 34 34 34 34 33 34 34 34 34 34 33 34 34 34 34 33 34
20 25 5 2 3 4 9 15 26 6 4 4 11 20 25 27 36 32 37 32 30 29 29 30 30 31 32 33 33 34 35 35 35 35 34 33 32 32 33 34 35 35 34 35 35 36 37 36 35
20 18 6 6 4 3 9 9 7 1 3 3 12 14 17 27 29 30 35 36 37 35 34 34 34 35 35 35 36 36 36 35 34 33 32 31 31 32 33 33 34 34 34 35 34 34 34 34 34
20 16 6 6 4 1 6 6 9 12 3 9 12 18 19 21 25 30 29 31 36 38 38 37 37 37 37 37 36 35 34 33 33 32 31 31 31 31 32 32 33 32 31 31 30 29 30 28 28
16 22 8 3 3 3 2 5 8 7 6 5 6 9 14 20 22 22 22 29 31 35 36 35 34 34 34 33 32 32 32 32 32 32 32 32 32 31 31 31 29 28 28 27 26 26 25 24 25
26 19 14 9 5 3 1 3 7 10 3 12 18 15 12 15 21 18 19 23 27 27 28 28 29 29 29 29 30 30 31 32 33 33 33 33 32 31 30 28 27 26 24 24 24 24 24 25 25
25 23 25 14 5 9 5 10 8 6 14 20 11 17 14 13 14 16 17 19 21 22 23 22 22 24 26 28 29 30 31 32 33 33 33 32 31 29 28 27 26 25 25 24 24 24 23 22 21

GFSSGP_700_spd_054.txt.gz
Wind_Speed
28 27 24 22 13 12 20 12 17 19 18 19 16 16 14 12 14 6 16 20 16 12 15 17 21 22 24 24 21 20 18 19 19 19 18 18 18 18 18 18 17 17 16 16 15 14 13 12 11
28 27 26 23 16 20 23 17 18 17 22 19 18 15 17 15 15 8 20 21 17 14 14 16 18 20 21 22 23 22 20 20 19 19 18 19 19 19 19 19 19 18 18 17 16 15 14 14 14
28 28 28 22 21 24 23 22 22 18 25 19 19 18 16 17 17 13 17 21 19 16 15 16 16 16 17 19 19 20 22 21 20 20 19 19 18 18 18 18 18 18 18 18 17 16 15 15 14
28 27 28 25 24 21 15 19 26 18 19 29 20 19 19 15 15 19 22 24 21 18 17 16 14 13 13 15 16 17 17 19 21 18 19 21 20 20 19 19 18 19 19 19 18 17 17 16 15
28 27 21 25 27 21 24 19 22 23 19 21 21 19 21 18 14 21 24 27 24 21 19 17 15 12 11 11 12 13 14 15 16 18 18 17 18 19 19 19 19 20 19 19 18 18 16 16 15
30 24 25 28 26 23 25 22 20 21 21 22 21 18 20 20 18 22 29 30 27 23 22 19 16 13 11 10 9 8 11 11 11 12 14 15 15 14 13 12 13 13 14 14 13 13 12 12 11
29 28 27 26 23 24 27 25 16 19 21 26 24 19 20 21 22 24 31 33 30 26 24 22 19 16 13 12 11 8 7 8 7 7 7 8 9 9 9 9 10 9 9 8 8 7 6 7 7
27 29 23 21 21 22 27 26 20 16 22 26 28 25 21 21 20 23 32 34 32 29 26 24 22 18 15 13 13 12 10 9 9 6 4 3 3 3 2 3 4 4 5 5 5 5 5 6 7
32 26 31 19 19 19 28 26 22 16 19 26 29 26 23 23 22 21 26 36 34 31 29 26 24 22 19 17 16 14 12 11 10 9 8 8 6 5 5 5 5 5 5 4 5 6 7 8 9
42 35 27 24 20 22 26 26 23 16 16 23 26 26 25 26 23 20 20 28 30 31 30 29 27 25 23 20 18 17 16 14 13 13 12 11 10 10 10 10 10 10 10 10 9 10 10 11 13
40 42 30 23 22 22 20 21 22 18 16 23 24 24 25 25 26 25 20 17 22 27 29 28 28 27 25 22 20 20 19 17 16 15 14 14 14 13 13 13 13 13 13 13 13 13 13 13 16
42 40 28 26 27 23 27 24 24 20 19 20 23 24 22 24 27 28 25 21 20 19 23 27 30 28 27 24 22 21 20 18 16 16 15 15 15 15 14 14 15 15 15 15 15 16 16 18 19
47 32 37 35 31 26 25 36 34 22 21 21 22 25 22 25 26 30 30 27 26 23 23 24 25 27 27 25 22 21 21 19 17 16 15 15 15 15 15 15 16 16 17 17 18 19 19 20 21
28 25 29 29 32 27 32 25 39 34 22 21 20 23 24 25 27 28 28 27 24 22 23 25 27 27 26 24 23 22 21 19 17 16 15 15 16 17 18 18 18 19 20 20 20 21 22 22 23
20 27 22 26 24 33 31 39 39 45 36 25 21 21 24 27 26 27 28 27 25 23 21 19 22 24 24 23 22 20 19 18 17 16 14 15 16 17 18 19 20 21 22 22 22 23 23 24 25
18 20 21 24 26 26 23 32 39 43 49 32 25 21 24 28 29 27 28 30 28 26 22 20 21 22 22 21 21 19 18 18 17 16 16 17 17 17 17 19 21 22 23 23 24 26 27 27 29
22 18 23 20 25 25 24 15 15 40 53 45 33 25 22 28 29 31 30 31 29 27 26 23 21 21 22 21 20 19 19 18 18 18 19 20 21 20 21 21 22 24 25 26 27 29 30 31 32
28 23 22 17 26 27 22 19 11 10 30 47 40 36 28 28 30 32 31 32 29 29 28 25 23 22 23 21 21 21 20 20 22 23 24 25 25 25 25 25 25 27 28 29 30 32 33 33 35
18 20 17 17 21 23 22 19 17 17 19 25 46 46 37 34 32 33 33 32 29 28 28 26 24 23 24 24 23 23 23 25 27 27 28 27 28 28 28 28 29 30 31 32 32 34 34 36 36
20 20 16 12 13 16 16 17 15 17 22 20 21 43 43 38 36 35 35 34 31 27 25 24 25 27 25 24 23 23 25 26 27 28 28 28 28 29 30 31 32 33 34 33 33 35 36 37 38
16 21 19 12 12 12 7 14 21 24 21 22 17 16 44 39 39 37 37 34 30 29 27 25 24 24 23 23 24 25 25 26 27 29 30 30 31 31 32 33 33 34 34 34 34 35 37 38 37
12 16 16 12 11 9 12 6 13 25 25 23 22 25 31 45 42 40 38 35 33 31 28 27 26 26 25 24 25 26 28 28 29 31 32 32 32 32 33 34 35 35 35 34 34 35 36 36 36
10 13 14 14 14 9 10 9 17 15 24 26 25 27 21 48 44 41 40 36 34 33 31 28 28 28 29 29 32 31 31 32 32 32 33 34 34 34 35 35 35 34 33 32 31 32 33 33 34
15 15 12 10 10 8 16 14 8 10 15 20 21 23 23 33 48 44 39 37 37 37 39 34 32 31 31 32 33 32 32 32 33 33 35 36 37 37 37 36 35 34 33 33 33 33 34 34 34
17 20 7 6 6 5 7 12 16 8 9 4 12 20 22 28 40 44 39 38 32 32 31 30 29 30 30 29 30 32 32 34 34 35 36 37 38 38 37 36 35 34 34 34 34 34 34 34 35
23 21 5 6 5 5 8 8 5 3 4 8 11 13 15 25 31 30 32 47 34 32 30 31 31 32 32 33 33 35 36 36 37 38 38 38 37 35 35 35 34 34 34 34 34 33 33 33 34
21 15 6 5 3 3 6 7 9 8 5 5 8 11 12 16 23 28 34 33 32 40 32 37 35 35 36 36 37 38 39 38 38 39 38 36 35 34 33 34 34 33 33 33 32 31 31 30 29
17 14 6 2 4 4 3 5 5 10 8 5 5 5 5 15 24 25 29 31 36 39 43 41 39 40 39 40 40 39 39 38 37 36 35 35 34 34 34 34 33 32 32 31 30 29 28 27 26
16 15 11 5 2 2 1 2 10 13 9 4 6 7 6 6 13 21 26 28 29 35 35 36 37 38 38 38 36 34 34 33 33 34 34 35 35 34 34 34 33 32 31 29 29 27 27 26 25
22 15 18 13 6 6 4 6 8 16 6 7 10 3 13 13 10 14 24 25 27 29 32 32 33 33 33 33 31 31 31 31 32 33 34 34 34 34 33 33 32 31 30 29 28 28 27 26 24

GFSSGP_700_spd_057.txt.gz
Wind_Speed
29 25 22 19 12 15 22 18 10 25 11 14 18 16 15 11 15 5 15 18 14 11 14 15 19 20 20 19 19 18 17 17 17 18 18 18 17 17 17 16 16 15 14 13 11 11 10 10 9
30 26 23 18 17 24 24 22 16 20 17 17 18 20 18 10 17 8 21 20 16 13 15 16 18 20 22 22 21 20 19 18 18 19 19 20 19 19 18 18 17 16 15 14 14 13 13 13 13
28 27 23 16 21 28 24 23 12 12 35 17 17 21 13 13 17 11 23 21 19 16 16 17 17 17 18 21 23 22 20 19 19 18 19 19 18 18 18 18 18 17 17 16 15 15 14 13 13
28 27 23 21 28 26 19 16 19 10 27 28 17 12 16 15 21 15 27 24 21 18 18 17 16 15 15 16 18 19 21 21 19 19 19 18 18 18 18 18 17 17 16 16 16 15 15 14 13
30 19 22 25 33 24 20 14 13 13 11 33 22 10 18 16 19 20 30 27 24 20 19 18 16 16 13 13 13 15 16 16 18 19 16 16 17 18 18 18 18 17 17 16 15 15 14 13 13
29 23 25 29 31 30 19 19 14 14 15 15 29 18 20 21 18 23 34 31 27 23 20 19 16 16 14 12 11 10 12 13 12 14 14 15 15 13 11 12 12 12 11 11 10 10 9 9 9
29 27 29 29 30 26 21 22 14 12 11 20 17 22 28 21 20 23 37 34 30 26 22 20 17 16 15 13 11 8 7 8 9 9 9 9 9 9 9 9 8 7 7 6 6 6 6 6 7
30 24 28 29 29 22 20 24 23 15 16 19 24 15 31 25 23 25 39 36 33 29 25 22 20 17 15 13 12 11 8 6 6 6 4 1 3 3 3 2 2 2 2 2 3 4 5 7 8
28 27 32 25 28 23 22 26 24 17 18 23 26 25 23 30 25 25 35 37 35 31 28 25 23 21 19 16 14 13 12 10 8 8 8 7 6 6 5 5 5 6 6 6 6 6 7 9 11
37 29 31 25 20 20 21 22 31 19 16 20 24 27 23 23 23 23 30 36 37 35 32 29 26 24 22 20 17 16 15 14 13 11 11 12 11 11 11 10 11 11 11 11 11 11 12 12 13
39 37 18 30 25 15 20 24 22 19 12 13 25 26 24 23 25 24 25 33 33 33 32 31 28 26 25 23 20 19 18 17 16 15 14 15 15 14 14 14 14 14 14 14 14 14 14 15 16
32 33 25 15 15 32 16 24 19 16 19 20 22 25 25 24 25 23 24 27 28 28 29 29 28 28 27 25 23 22 21 20 18 17 16 16 16 15 16 16 16 16 16 16 16 17 17 18 20
34 30 30 28 23 21 33 23 26 20 21 19 22 22 25 25 25 27 27 27 26 25 27 29 29 29 28 27 26 25 23 20 19 18 17 17 16 15 16 16 17 18 18 18 19 19 20 21 21
29 27 32 26 26 26 26 25 31 28 19 19 21 23 24 23 26 28 29 27 27 26 24 24 24 27 30 29 28 26 24 21 20 19 18 16 15 16 17 18 18 19 20 20 21 22 22 22 22
36 30 25 35 22 26 23 25 38 34 23 21 19 20 24 25 28 29 31 28 28 28 26 25 26 26 27 27 27 26 25 22 20 19 17 15 15 16 17 18 19 20 21 22 22 23 23 24 25
20 26 29 34 28 23 29 32 29 34 36 28 24 17 21 26 29 31 31 32 31 30 29 28 30 27 27 29 28 26 23 21 20 17 15 15 17 18 19 19 20 21 22 23 23 24 25 26 27
21 20 21 14 20 20 25 19 14 24 38 47 31 25 20 25 30 32 32 32 33 31 28 27 26 23 23 25 25 24 22 20 18 17 17 18 20 22 22 22 23 24 25 26 26 28 28 29 29
28 23 18 15 21 22 19 17 10 15 25 41 43 32 23 23 29 32 32 32 33 33 31 27 26 24 23 23 22 21 20 19 19 20 21 22 24 25 26 26 26 27 27 28 29 29 29 31 33
25 24 17 17 16 25 20 17 18 13 13 18 36 42 31 24 26 34 33 32 32 32 31 29 28 26 25 22 22 22 20 21 22 24 25 27 27 28 28 28 29 29 30 31 31 33 35 35 36
20 24 15 12 10 19 18 20 22 20 20 18 15 39 36 28 26 35 35 33 33 33 32 31 31 29 28 27 25 25 24 25 26 28 28 29 30 30 30 29 30 31 33 34 35 35 36 36 36
17 23 20 14 12 11 12 18 21 24 22 21 22 21 35 33 30 33 38 36 35 34 33 32 33 31 29 30 30 29 28 27 27 29 28 29 30 31 32 32 33 34 35 35 35 36 37 38 38
19 18 16 12 14 11 15 7 22 21 24 23 21 23 25 38 32 30 38 41 37 36 34 33 30 30 29 27 27 27 27 28 30 29 30 32 32 34 34 35 35 35 36 36 36 36 36 36 36
12 19 14 14 15 10 12 9 15 10 15 21 21 21 21 24 34 33 36 40 38 36 32 34 30 30 29 27 27 27 29 30 30 31 33 34 35 36 36 37 37 37 38 37 36 34 33 33 33
12 16 12 11 12 11 16 14 11 11 6 11 15 18 21 24 24 42 48 42 42 39 44 48 40 35 34 32 30 33 34 34 34 33 34 35 36 37 38 38 39 39 38 36 35 34 33 33 33
17 22 8 5 4 4 1 13 14 3 8 8 10 17 20 20 25 29 38 46 44 40 39 40 38 34 36 32 34 33 32 32 31 33 34 36 38 38 38 38 39 38 36 35 34 34 33 32 33
18 20 6 5 6 11 7 8 7 10 12 13 10 11 14 20 23 27 29 43 41 37 41 38 35 40 37 40 38 37 33 32 34 35 37 38 39 39 39 39 38 37 36 35 34 33 33 32 32
18 20 5 2 4 1 8 6 12 5 2 2 5 6 8 12 17 27 24 36 45 40 38 37 30 32 33 30 32 35 35 37 38 39 40 40 41 40 40 38 37 36 35 35 34 34 32 31 31
15 14 6 0 4 4 4 4 2 7 6 6 5 3 2 6 12 16 26 29 35 36 31 29 47 32 35 34 36 37 38 40 41 42 42 41 40 39 38 37 37 36 35 35 34 33 31 30 29
13 11 5 3 1 3 1 6 6 11 9 8 4 2 1 2 7 15 22 27 32 35 35 33 36 35 37 40 39 40 41 42 42 41 39 38 37 36 37 37 36 36 36 35 34 32 31 30 29
15 14 15 9 5 6 4 2 3 9 9 8 11 12 11 8 12 14 17 21 25 31 33 35 40 45 49 44 41 41 40 40 38 36 35 35 36 35 35 35 35 35 36 35 33 31 30 30 28

GFSSGP_700_spd_063.txt.gz
Wind_Speed
26 25 27 24 16 15 24 19 21 33 17 18 3 6 13 14 23 11 16 15 12 11 12 12 12 13 14 16 16 15 16 15 15 16 17 18 18 18 16 14 13 12 11 12 13 13 14 13 13
29 27 27 29 18 22 24 23 18 22 20 13 13 10 17 15 14 16 21 19 15 14 15 16 16 16 16 17 17 17 17 16 16 17 17 18 17 17 17 16 15 15 14 14 14 14 14 12 12
30 29 30 26 31 26 24 20 23 15 25 24 17 13 11 20 17 21 25 22 19 19 19 19 19 19 19 18 18 18 18 18 17 17 18 19 18 18 17 17 16 15 15 14 14 13 13 13 14
32 31 31 24 42 37 23 24 19 25 19 24 16 16 8 11 22 26 28 25 23 21 20 20 20 22 22 22 20 19 19 18 19 17 18 18 18 18 17 16 15 15 15 15 15 14 14 14 14
33 32 31 30 40 43 24 6 14 29 28 25 26 18 9 15 13 27 31 29 25 23 22 20 19 21 22 22 22 23 22 20 20 18 19 19 19 18 18 17 16 16 15 15 14 13 12 12 11
35 33 33 35 39 46 26 21 18 16 12 21 29 35 17 9 14 16 31 31 30 24 23 21 20 20 21 21 20 20 20 20 20 20 20 20 19 17 15 14 13 12 11 11 10 10 9 9 9
40 34 35 41 39 35 21 24 26 21 11 20 24 33 33 20 17 21 27 33 32 28 24 22 19 19 19 19 18 17 16 16 16 15 16 16 16 15 14 13 13 12 11 11 10 10 10 10 10
41 36 29 35 24 20 27 32 16 19 20 22 25 27 30 29 31 20 24 29 33 31 28 23 19 17 17 17 16 15 13 12 12 11 10 10 9 9 8 7 6 6 5 5 5 6 6 7 9
38 32 34 32 29 21 28 33 28 21 22 23 22 21 21 30 27 30 29 29 31 33 31 28 23 19 15 13 12 12 11 9 7 7 5 4 4 4 3 3 4 4 6 6 7 8 9 10 11
42 35 41 32 26 23 25 34 35 25 23 24 24 17 16 18 24 22 26 31 29 32 33 32 29 23 17 15 14 11 8 7 5 4 3 1 1 3 4 5 7 8 9 9 10 10 11 11 11
47 34 42 36 22 22 26 30 32 29 26 25 24 25 20 20 21 24 23 25 31 27 31 34 31 28 23 18 16 15 12 10 8 7 6 4 6 7 7 7 8 9 11 12 12 12 12 12 13
28 42 34 30 20 25 28 32 31 28 28 31 26 22 21 22 23 28 20 25 20 27 25 31 32 29 26 23 20 18 16 14 13 12 11 9 9 9 9 9 9 9 10 12 13 13 14 15 16
34 25 35 30 26 27 31 32 31 26 24 25 22 21 22 23 20 28 28 24 25 26 30 28 29 29 27 24 23 21 20 18 16 15 14 13 12 12 10 10 10 10 11 12 13 14 14 15 15
32 31 19 40 38 33 35 33 32 28 26 24 22 19 20 23 24 25 25 22 22 30 28 37 31 32 28 25 24 22 23 20 20 18 17 15 14 14 12 12 11 11 12 13 14 14 15 15 17
24 22 31 30 28 34 35 35 30 28 26 23 22 22 18 21 24 28 25 22 25 27 34 27 30 27 31 28 27 25 23 24 23 21 18 18 16 15 13 12 12 13 14 15 15 16 18 19 20
31 18 24 33 30 18 28 33 28 28 25 21 21 29 28 22 25 26 27 27 25 23 20 25 29 30 29 27 28 27 26 27 26 23 20 19 18 16 14 14 13 15 16 17 18 20 20 21 22
24 12 21 17 22 14 17 23 33 24 25 24 26 19 26 28 22 27 28 27 28 27 25 23 23 24 24 25 25 25 23 25 24 21 21 19 19 17 15 15 16 18 19 20 20 21 22 22 23
27 32 28 24 22 14 31 21 18 31 28 32 33 27 24 25 27 23 23 27 27 27 28 27 27 26 26 27 27 27 27 26 24 24 21 20 19 18 17 17 18 20 22 22 23 22 24 26 27
22 22 27 23 23 23 23 22 16 20 22 25 24 32 36 33 25 24 22 23 25 27 26 26 25 25 24 23 22 23 22 22 22 22 21 21 20 20 19 18 21 23 23 24 25 26 28 29 30
15 12 14 10 13 16 20 19 23 23 21 20 22 24 30 36 32 31 27 24 26 26 26 26 25 25 25 23 22 22 21 21 22 22 23 22 20 19 20 22 23 23 24 25 27 29 31 32 31
13 18 18 19 19 17 16 18 23 29 25 22 23 19 20 32 44 41 42 37 28 28 28 28 26 27 28 26 26 26 26 26 24 23 23 21 20 22 23 24 25 25 26 28 29 32 33 34 34
16 19 17 19 22 8 17 4 15 22 25 26 24 21 19 19 29 53 43 41 42 34 27 30 31 30 30 30 31 31 27 27 25 26 26 26 24 23 24 25 27 27 30 31 32 34 34 36 36
17 27 19 20 9 11 14 5 6 7 15 17 23 20 19 18 23 36 41 35 35 36 36 29 34 33 31 30 31 32 30 29 30 30 28 27 26 26 26 28 28 30 32 34 34 35 35 36 36
19 26 22 18 18 3 13 10 2 6 6 4 7 11 14 12 17 24 39 40 34 33 34 34 31 34 33 33 32 34 34 36 28 27 26 25 27 28 30 32 32 32 33 34 35 36 36 36 36
26 26 5 3 2 3 12 10 3 10 3 3 7 14 15 16 17 19 27 39 42 37 39 39 40 35 34 34 34 33 31 26 24 27 25 24 30 31 32 34 33 34 34 35 37 36 37 37 35
24 8 4 4 3 3 7 9 5 8 8 10 10 9 18 15 20 22 24 24 31 34 34 36 36 33 34 34 34 34 32 31 31 36 40 50 37 43 34 35 37 38 38 38 38 38 38 37 35
18 7 6 6 5 4 6 7 8 8 10 12 14 15 14 19 25 26 27 25 24 29 30 33 33 36 34 33 35 34 32 34 36 38 40 34 35 40 40 38 41 41 41 41 40 39 39 38 36
8 7 5 2 3 3 6 7 4 16 10 5 4 5 7 8 13 17 23 26 26 24 25 25 25 33 32 30 30 35 39 35 31 36 35 31 33 35 37 39 41 41 41 39 38 38 37 37 37
8 8 4 3 1 3 2 2 11 13 4 3 7 7 5 4 4 4 7 7 10 16 18 22 22 32 35 36 38 36 41 34 43 45 33 31 33 34 34 35 35 39 38 38 37 37 37 38 35
12 12 6 1 1 3 3 3 15 6 2 3 7 6 8 11 12 10 10 8 7 7 12 17 23 27 36 40 40 41 39 41 33 35 36 34 35 37 37 44 33 40 37 37 37 36 35 37 35

GFSSGP_700_spd_066.txt.gz
Wind_Speed
29 30 29 28 22 20 24 23 30 29 30 16 9 8 22 20 27 10 15 15 13 12 12 13 12 12 14 13 14 15 15 16 16 15 16 16 16 17 16 14 13 11 10 11 12 12 13 14 13
30 31 32 28 21 30 33 24 18 29 33 15 8 11 16 27 26 15 22 19 15 13 13 14 14 15 15 15 15 15 16 16 16 17 16 16 17 16 16 15 15 15 14 14 13 13 13 13 13
33 32 33 29 32 35 32 31 32 15 36 14 3 12 21 21 26 27 24 21 19 16 16 16 17 17 17 17 17 16 17 17 17 17 18 18 18 17 17 17 16 16 15 14 13 13 14 14 14
33 33 32 26 39 46 34 29 23 22 18 20 9 16 20 28 23 29 26 22 21 20 20 20 20 19 19 19 18 18 17 18 17 17 18 18 18 18 17 16 15 15 15 14 14 14 13 13 13
35 36 33 30 44 45 40 21 9 32 20 22 29 16 18 29 26 31 30 26 25 24 23 23 23 22 22 22 21 20 19 19 18 18 18 18 18 18 18 17 16 15 14 13 12 12 11 11 10
37 37 28 36 44 41 44 30 21 24 25 33 20 24 19 27 25 32 33 30 29 26 27 25 25 24 24 24 25 25 24 23 21 21 20 20 19 18 17 16 15 14 13 12 11 10 10 10 11
42 41 32 42 40 34 41 30 22 33 34 24 28 24 32 21 27 34 32 32 31 30 28 26 25 25 24 23 22 22 22 21 19 19 19 19 19 18 17 15 14 13 11 10 9 9 9 9 10
42 39 34 43 32 35 39 35 22 17 28 27 30 39 31 29 19 20 27 32 32 31 29 27 26 24 23 22 20 19 19 18 16 15 14 13 13 12 11 10 9 8 7 6 6 7 7 8 9
43 43 34 39 31 35 39 38 24 15 23 27 26 31 24 23 16 32 27 28 32 34 32 30 27 25 23 21 19 17 15 14 12 11 9 9 7 6 5 3 2 2 3 4 6 7 8 9 10
40 48 41 32 39 31 34 49 38 26 24 31 28 22 18 22 21 24 29 27 26 32 34 32 30 27 24 21 19 16 13 10 9 7 6 5 3 1 1 2 4 5 5 6 7 7 8 10 11
40 42 34 30 32 31 24 32 40 39 25 27 28 31 25 23 25 22 33 26 30 25 30 33 32 30 27 24 22 19 15 10 7 5 4 3 4 4 4 5 6 7 7 8 8 9 10 11 12
36 38 35 33 32 35 27 28 32 35 29 24 24 29 27 22 20 17 14 26 26 24 24 31 34 32 29 27 24 22 19 16 13 10 7 7 8 8 8 8 7 8 8 9 10 10 11 13 14
38 43 37 29 27 33 27 31 37 38 35 27 24 25 24 22 20 19 18 16 19 26 23 26 29 31 30 29 26 25 22 19 17 15 12 10 11 11 11 10 9 9 9 9 10 11 12 13 13
28 29 45 25 26 31 31 33 35 35 38 33 28 25 24 24 22 22 19 25 22 16 17 27 32 26 30 28 28 26 23 21 20 18 17 15 14 14 13 12 11 9 9 9 10 11 12 13 14
13 27 29 43 26 33 33 34 35 32 33 31 30 26 24 25 24 23 22 21 22 19 17 19 32 24 25 27 26 25 24 23 22 21 20 19 18 17 15 13 13 12 11 11 12 13 14 15 16
20 25 22 24 32 27 37 32 36 33 32 30 29 27 25 21 26 27 25 23 23 24 22 16 14 24 30 23 29 29 26 24 24 24 22 21 20 20 17 16 14 13 13 14 15 15 16 17 17
28 25 34 17 32 19 32 28 36 35 32 28 27 26 26 23 20 26 28 27 25 24 23 22 19 23 23 34 23 32 26 25 26 26 23 23 23 22 20 18 16 15 15 16 17 17 18 18 20
30 21 25 21 23 18 18 25 28 31 28 24 22 20 20 21 25 23 24 26 27 26 27 24 22 25 25 27 27 26 25 24 24 25 22 23 25 24 22 20 18 17 18 19 19 19 20 21 24
24 25 25 12 11 13 21 18 30 25 27 26 24 24 22 23 20 23 22 26 28 28 27 26 25 23 25 26 26 26 24 24 25 27 28 28 26 24 22 20 19 18 20 21 21 22 23 24 26
16 19 14 10 8 10 11 18 23 25 27 27 25 30 34 32 28 28 24 24 26 26 26 25 24 24 24 23 24 24 24 23 23 25 25 24 25 25 23 21 21 21 21 21 24 25 26 27 28
13 15 18 27 24 10 10 17 33 24 25 25 27 29 29 30 31 39 34 27 24 26 25 23 24 24 26 29 28 26 25 25 25 25 25 25 24 23 23 23 22 23 22 24 26 26 29 31 30
20 17 18 22 24 17 10 3 15 25 27 28 27 30 30 26 27 32 39 39 36 30 24 23 24 26 26 26 28 26 24 24 22 21 21 22 23 22 23 23 23 25 25 24 27 29 30 33 32
13 18 14 18 18 10 14 6 4 11 26 24 21 23 23 22 21 22 30 46 41 31 29 29 28 26 26 27 28 28 27 28 25 23 26 27 24 25 27 25 24 25 26 27 30 30 32 34 34
14 18 14 17 11 3 13 15 1 5 11 13 20 22 21 19 17 18 22 24 38 42 36 30 25 31 31 27 29 32 31 34 37 36 32 31 37 37 30 23 24 29 28 27 31 33 35 36 37
19 27 4 2 1 2 11 13 1 7 9 5 10 14 19 18 16 16 20 19 19 34 42 31 28 28 30 28 28 32 32 31 33 35 32 34 37 28 21 24 27 27 28 35 36 39 40 40 39
29 18 7 4 5 5 13 7 5 6 6 5 3 4 9 14 20 19 18 16 20 25 30 30 30 32 32 30 28 30 31 31 28 30 29 28 25 24 30 35 40 50 44 36 40 39 41 41 40
11 10 6 10 4 5 7 6 8 9 6 6 7 9 11 11 18 19 19 18 17 18 19 23 25 27 29 29 27 29 29 29 27 26 27 27 28 29 33 34 32 34 34 38 42 41 41 40 39
10 10 5 4 3 3 3 2 5 9 6 8 8 8 9 11 14 16 19 20 20 21 22 24 25 26 28 31 29 29 30 27 27 30 33 35 39 46 40 36 37 35 35 35 38 36 36 38 36
12 7 4 5 2 3 2 2 9 5 5 2 8 10 10 9 6 3 3 9 11 13 17 21 23 27 28 26 27 28 33 36 35 29 29 29 33 34 33 39 37 43 43 41 42 38 36 41 38
10 9 6 2 3 3 2 2 11 9 6 10 9 6 7 6 6 6 5 6 8 9 12 11 13 20 23 25 28 34 34 33 36 34 33 34 33 34 38 36 36 37 41 42 40 39 42 40 38

GFSSGP_700_spd_069.txt.gz
Wind_Speed
31 31 30 26 25 25 43 25 29 37 25 28 16 10 11 22 22 17 9 19 15 12 12 12 12 12 11 12 11 12 10 14 14 16 18 18 20 16 15 13 11 9 9 10 12 13 13 13 14
32 30 32 31 22 30 42 36 23 35 32 22 18 16 10 21 21 21 16 19 17 13 13 13 13 12 13 13 13 13 14 15 15 16 17 16 16 15 13 12 12 13 13 13 13 13 13 14 14
33 30 35 34 29 35 42 44 18 36 37 22 14 15 14 19 21 16 20 22 20 17 14 14 14 14 15 15 15 15 16 16 16 16 17 17 17 16 15 15 16 15 14 14 14 14 14 13 12
31 34 34 33 32 39 39 42 33 27 31 38 15 7 16 18 29 22 24 21 21 19 18 18 18 17 17 17 17 18 18 18 18 18 18 19 19 18 18 17 16 15 15 14 13 12 12 11 11
33 35 32 34 38 45 29 27 33 33 41 47 19 11 11 22 24 28 27 24 22 21 21 20 20 20 20 19 19 19 20 18 18 18 18 18 18 18 18 17 16 15 13 12 11 10 10 10 11
36 37 25 31 51 47 32 27 28 25 27 42 36 24 15 18 25 30 29 27 25 23 23 23 23 23 22 22 22 21 21 20 20 20 20 19 18 18 17 16 15 15 14 13 12 12 11 11 11
41 37 29 34 49 42 44 23 22 23 23 35 31 26 25 19 25 26 27 29 26 25 25 26 26 26 26 26 25 25 24 24 24 23 22 21 20 19 17 16 14 13 11 10 8 8 8 9 9
50 43 33 39 44 35 43 43 28 23 25 20 34 34 28 24 34 25 22 28 28 27 27 28 29 29 29 28 27 26 24 22 22 20 19 18 16 15 14 12 11 9 7 5 4 5 5 6 7
45 36 38 46 44 35 31 34 34 22 32 31 33 42 24 29 26 19 24 27 28 29 30 30 29 29 29 28 27 25 23 20 18 17 15 13 11 10 8 7 5 4 3 4 4 5 6 7 9
49 38 54 46 36 34 31 37 39 21 32 34 36 20 26 29 18 17 28 25 24 27 31 31 30 29 28 27 25 23 21 18 16 14 12 9 7 5 3 2 1 2 3 5 6 7 7 8 9
52 41 47 33 34 35 30 36 44 37 28 33 30 30 30 17 16 11 21 27 27 22 26 29 30 30 28 27 25 22 20 17 15 14 12 9 7 4 3 3 4 4 5 6 7 8 9 10 11
44 35 53 38 28 34 32 34 40 40 28 28 29 33 22 24 20 21 14 20 19 22 24 26 29 30 30 29 27 24 21 17 14 12 10 8 8 7 7 7 7 8 7 7 8 9 10 12 12
39 45 35 35 39 37 31 32 35 38 33 24 26 28 28 28 22 19 18 17 24 17 27 23 26 27 30 30 29 27 25 21 18 15 13 12 11 10 10 9 10 10 9 9 9 10 10 11 12
51 25 37 32 40 32 32 32 39 36 35 34 22 27 26 18 23 19 20 26 29 22 28 25 29 27 28 28 29 28 27 24 21 18 17 15 15 14 13 12 13 12 11 10 10 10 10 12 13
43 32 40 37 36 26 33 33 35 33 33 33 31 22 27 27 27 24 22 27 31 22 10 14 23 28 31 31 28 27 26 25 23 22 20 20 18 17 17 16 15 15 13 12 12 12 12 14 14
31 36 30 36 41 15 33 32 34 31 33 35 34 33 27 28 28 27 23 21 22 20 13 13 11 19 42 30 27 26 26 26 25 26 24 22 22 22 21 20 18 17 15 14 14 14 15 15 15
30 17 25 21 39 12 27 31 33 32 31 35 35 32 28 26 27 26 27 18 21 19 20 22 13 15 23 30 34 33 27 26 23 26 26 24 24 24 24 22 21 20 18 16 15 16 16 17 17
28 29 16 22 30 33 21 30 34 35 31 30 31 30 24 21 21 19 22 25 26 24 24 22 21 18 20 12 32 24 20 25 25 26 27 23 24 26 25 24 23 22 19 17 17 17 18 19 20
16 17 16 17 10 11 18 17 36 33 31 28 28 27 27 25 20 20 21 25 26 28 27 26 23 21 21 20 24 22 26 29 24 25 25 25 25 27 27 26 25 23 20 19 19 19 19 21 23
13 21 6 12 15 6 12 17 28 39 35 27 28 28 26 24 23 20 19 21 24 25 25 26 24 23 21 20 19 21 24 24 25 25 26 26 26 29 28 26 25 23 21 20 21 21 21 22 24
16 24 22 14 11 4 5 8 12 31 24 30 32 28 26 26 27 26 23 19 21 23 23 22 25 24 24 22 27 29 26 25 25 25 25 26 27 28 26 25 25 23 22 21 21 21 23 23 25
22 12 10 13 11 7 13 5 9 19 26 27 29 30 27 26 25 28 31 30 27 20 22 20 23 23 24 27 29 28 28 26 26 27 23 23 23 24 24 25 24 24 23 20 20 22 24 25 25
20 16 11 10 17 15 13 6 1 23 26 30 31 27 25 26 26 23 24 28 34 32 28 22 22 23 21 23 27 26 28 27 27 29 27 25 25 27 23 22 23 28 27 26 25 25 24 26 27
21 16 18 19 15 4 15 12 3 1 16 25 25 23 20 20 22 22 19 17 21 26 33 30 24 22 25 28 31 36 28 28 30 31 26 27 32 34 33 32 28 36 37 27 24 27 27 31 34
21 15 4 4 1 2 12 15 2 4 8 7 12 18 19 20 22 17 17 18 16 15 20 33 28 25 23 26 25 29 35 29 28 32 30 34 39 33 37 33 29 25 19 23 31 35 39 42 45
15 10 5 4 2 2 13 5 2 4 9 6 6 6 10 13 16 16 14 12 10 13 12 21 24 25 25 29 28 28 27 30 32 32 28 32 30 34 28 30 23 21 27 31 34 36 37 36 38
20 7 5 8 6 3 4 3 3 5 5 4 2 2 5 7 12 14 14 15 15 14 14 16 23 26 30 32 29 26 27 26 27 30 31 31 25 24 22 23 24 27 32 39 35 36 35 38 38
12 15 5 2 3 3 0 1 2 8 5 5 7 9 12 13 14 13 13 14 14 14 15 17 19 20 23 25 27 29 29 28 28 29 26 23 23 25 24 27 31 36 34 33 34 38 38 42 43
15 8 4 6 3 3 3 1 7 9 9 9 8 8 6 4 3 1 3 5 9 11 13 17 20 22 24 26 29 29 28 26 25 27 28 29 30 25 25 24 27 29 33 38 36 38 37 40 38
13 8 5 2 4 4 3 1 8 16 14 11 9 4 3 3 4 4 4 4 6 8 10 11 13 14 17 20 23 26 27 26 26 30 33 32 28 27 29 29 29 32 33 37 37 42 40 39 37